This demonstration page uses our WeatherBlox Daily Observations layout. Learn more.

Left ArrowRight Arrow

36.17497, -115.13722

Hourly Observations for February 5, 2019

Temp ( °F °C ) Dew Point ( °F °C ) Humidity (%) Winds ( mph kmh ) Pressure ( in mb ) Visibility ( mi km ) Precip ( " mm )
12:53 am 00:53 Clear 49 9.4 31 -0.6 50 50 SSW 16 26 29.70 1006 10 16 0.00 0.00
1:53 am 01:53 Clear 49 9.4 31 -0.6 50 50 SW 16 26 29.69 1006 10 16 0.00 0.00
2:53 am 02:53 Clear 49 9.4 30 -1.1 48 48 SW 23 37 29.67 1005 10 16 0.00 0.00
3:53 am 03:53 Cloudy 49 9.4 31 -0.6 50 50 SSW 18 30 29.68 1005 10 16 0.00 0.00
4:53 am 04:53 Cloudy 45 7.2 36 2.2 71 71 SSW 26 43 29.70 1006 10 16 0.00 0.03
5:53 am 05:53 Cloudy with Light Rain 45 7.2 36 2.2 71 71 SW 16 26 29.73 1007 10 16 0.00 0.03
6:53 am 06:53 Mostly Cloudy 46 7.8 34 1.1 63 63 SSW 12 19 29.73 1007 10 16 0.00 0.03
7:53 am 07:53 Sunny 46 7.8 32 0 58 58 S 12 19 29.76 1008 10 16 0.00 0.00
8:53 am 08:53 Partly Cloudy 47 8.3 32 0 56 56 SSW 16 26 29.78 1008 10 16 0.00 0.00
9:53 am 09:53 Cloudy 49 9.4 29 -1.7 46 46 SSW 16 26 29.78 1008 10 16 0.00 0.00
10:53 am 10:53 Mostly Cloudy 50 10 28 -2.2 43 43 SSW 28 44 29.77 1008 10 16 0.00 0.00
11:53 am 11:53 Mostly Cloudy 53 11.7 28 -2.2 38 38 SW 23 37 29.74 1007 10 16 0.00 0.00
12:53 pm 12:53 Cloudy 49 9.4 32 0 52 52 WSW 7 11 29.75 1007 10 16 0.00 0.03
1:53 pm 13:53 Cloudy with Light Rain 50 10 30 -1.1 46 46 SW 16 26 29.72 1007 10 16 0.00 0.03
2:53 pm 14:53 Cloudy with Light Rain 45 7.2 35 1.7 68 68 WSW 14 22 29.74 1007 10 16 0.01 0.25
3:53 pm 15:53 Cloudy 47 8.3 32 0 56 56 W 13 20 29.74 1007 10 16 0.00 0.03
4:53 pm 16:53 Mostly Cloudy 47 8.3 20 -6.7 34 34 W 24 39 29.73 1007 10 16 0.00 0.00
5:53 pm 17:53 Clear 47 8.3 17 -8.3 30 30 WSW 23 37 29.74 1007 10 16 0.00 0.00
6:53 pm 18:53 Clear 46 7.8 15 -9.4 29 29 WSW 22 35 29.77 1008 10 16 0.00 0.00
7:53 pm 19:53 Clear 44 6.7 16 -8.9 32 32 W 16 26 29.79 1009 10 16 0.00 0.00
8:53 pm 20:53 Clear 43 6.1 17 -8.3 35 35 W 15 24 29.80 1009 10 16 0.00 0.00
9:10 pm 21:10 Mostly Clear 42 5.6 23 -5 47 47 NNW 21 33 29.80 1009 10 16 0.00 0.00
9:53 pm 21:53 Clear 38 3.3 26 -3.3 62 62 NW 24 39 29.83 1010 10 16 0.00 0.00
10:53 pm 22:53 Mostly Cloudy 38 3.3 26 -3.3 62 62 N 9 15 29.85 1011 10 16 0.00 0.00
11:53 pm 23:53 Cloudy 38 3.3 25 -3.9 60 60 NW 12 19 29.85 1011 10 16 0.00 0.00

Powered by AerisWeather